Weather History for Volk, WI

Change the Weather History Date:

Sunday, February 24, 2013

  Actual Average Record
Temperature  
Mean Temperature 22 °F -  
Max Temperature 37 °F 31 °F 50 °F (1998)
Min Temperature 8 °F 19 °F -2 °F (2003)
Degree Days  
Heating Degree Days 42    
Moisture  
Dew Point 12 °F    
Average Humidity 85    
Maximum Humidity 94    
Minimum Humidity 52    
Precipitation  
Precipitation 0.00 in - - ()
Snow  
Snow 0.00 in - - ()
Snow Depth 8.00 in    
Sea Level Pressure  
Sea Level Pressure 30.05 in    
Wind  
Wind Speed 3 mph (WNW)    
Max Wind Speed 7 mph    
Max Gust Speed -    
Visibility 6 miles    
Events Fog    
Averages and records for this station are not official NWS values.
T = Trace of Precipitation, MM = Missing Value Source: NWS Daily Summary

Daily Weather History Graph

Daily Weather History Graph

Search for Another Location

Airport:

Trip Planner

Search our weather history database for the weather conditions in past years. The results will help you decide how hot, cold, wet, or windy it might be!

Date:

Astronomy

Feb. 24, 2013 Rise Set
Actual Time 6:45 AM CST 5:43 PM CST
Civil Twilight 6:16 AM CST 6:12 PM CST
Nautical Twilight 5:43 AM CST 6:45 PM CST
Astronomical Twilight 5:09 AM CST 7:19 PM CST
Moon 4:54 PM CST (2/24) 5:43 AM CST (2/24)
Length of Visible Light 11h 55m
Length of Day
10h 57m
Waxing Gibbous, 99% of the Moon is Illuminated
Feb 24
Waxing Gibbous
Feb 25
Full
Mar 4
Last Quarter
Mar 11
New
Mar 19
First Quarter

Hourly Weather History & Observations

Time (CST) Temp. Windchill Dew Point Humidity Pressure Visibility Wind Dir Wind Speed Gust Speed Precip Events Conditions
12:55 AM 15.4 °F 6.8 °F 13.6 °F 93% 29.98 in 10.0 mi West 5.8 mph - N/A   Clear
1:55 AM 15.6 °F 5.9 °F 13.5 °F 91% 29.99 in 10.0 mi WNW 6.9 mph - N/A   Clear
2:55 AM 15.1 °F 9.4 °F 12.9 °F 91% 29.99 in 10.0 mi WNW 3.5 mph - N/A   Clear
3:37 AM 10.4 °F 4.0 °F 8.6 °F 92% 30.00 in 2.5 mi North 3.5 mph - N/A   Clear
3:38 AM 10.4 °F 4.0 °F 8.6 °F 92% 30.00 in 2.0 mi North 3.5 mph - N/A   Clear
3:39 AM 10.4 °F 4.0 °F 8.6 °F 92% 30.00 in 1.8 mi North 3.5 mph - N/A   Clear
3:41 AM 10.4 °F 4.0 °F 8.6 °F 92% 30.00 in 1.5 mi North 3.5 mph - N/A   Clear
3:46 AM 10.4 °F 4.0 °F 8.6 °F 92% 30.00 in 1.8 mi NNW 3.5 mph - N/A   Clear
3:47 AM 10.4 °F 4.0 °F 6.8 °F 85% 30.00 in 2.0 mi NNW 3.5 mph - N/A   Clear
3:48 AM 10.4 °F 4.0 °F 6.8 °F 85% 30.00 in 3.0 mi NNW 3.5 mph - N/A   Clear
3:55 AM 8.8 °F 2.2 °F 6.1 °F 89% 30.01 in 2.5 mi WNW 3.5 mph - N/A   Clear
3:56 AM 8.6 °F 2.0 °F 6.8 °F 92% 30.01 in 2.0 mi WNW 3.5 mph - N/A   Clear
3:57 AM 8.6 °F 2.0 °F 6.8 °F 92% 30.01 in 1.5 mi WNW 3.5 mph - N/A   Clear
3:59 AM 8.6 °F 2.0 °F 6.8 °F 92% 30.01 in 1.2 mi WNW 3.5 mph - N/A   Clear
4:00 AM 8.6 °F 2.0 °F 6.8 °F 92% 30.01 in 1.0 mi WNW 3.5 mph - N/A   Clear
4:02 AM 8.6 °F - 6.8 °F 92% 30.01 in 0.8 mi Calm Calm - N/A   Clear
4:05 AM 8.6 °F - 6.8 °F 92% 30.01 in 0.5 mi Calm Calm - N/A Fog Light Freezing Fog
4:14 AM 8.6 °F 2.0 °F 6.8 °F 92% 30.01 in 0.8 mi West 3.5 mph - N/A   Clear
4:16 AM 8.6 °F 2.0 °F 6.8 °F 92% 30.01 in 1.0 mi West 3.5 mph - N/A   Clear
4:18 AM 8.6 °F 2.0 °F 6.8 °F 92% 30.01 in 1.2 mi West 3.5 mph - N/A   Clear
4:19 AM 8.6 °F 2.0 °F 6.8 °F 92% 30.01 in 1.5 mi West 3.5 mph - N/A   Clear
4:20 AM 8.6 °F 2.0 °F 6.8 °F 92% 30.01 in 1.8 mi West 3.5 mph - N/A   Clear
4:21 AM 8.6 °F 0.1 °F 6.8 °F 92% 30.01 in 2.0 mi West 4.6 mph - N/A   Clear
4:22 AM 10.4 °F 2.2 °F 6.8 °F 85% 30.01 in 3.0 mi West 4.6 mph - N/A   Clear
4:55 AM 12.2 °F 2.9 °F 9.7 °F 90% 30.03 in 10.0 mi West 5.8 mph - N/A   Clear
5:55 AM 12.0 °F 4.1 °F 9.5 °F 90% 30.04 in 7.0 mi West 4.6 mph - N/A   Clear
6:55 AM 9.0 °F 2.4 °F 6.1 °F 88% 30.06 in 4.0 mi NNW 3.5 mph - N/A   Clear
7:06 AM 8.6 °F 2.0 °F 6.8 °F 92% 30.07 in 2.5 mi West 3.5 mph - N/A   Clear
7:13 AM 8.6 °F -1.3 °F 6.8 °F 92% 30.08 in 3.0 mi West 5.8 mph - N/A   Clear
7:55 AM 15.8 °F 10.2 °F 13.6 °F 91% 30.08 in 10.0 mi WNW 3.5 mph - N/A   Clear
8:55 AM 21.2 °F - 19.4 °F 93% 30.09 in 10.0 mi Calm Calm - N/A   Partly Cloudy
9:55 AM 23.0 °F - 19.4 °F 86% 30.11 in 10.0 mi Calm Calm - N/A   Mostly Cloudy
10:55 AM 26.6 °F - 19.4 °F 74% 30.11 in 10.0 mi Calm Calm - N/A   Mostly Cloudy
11:55 AM 33.8 °F - 23.0 °F 65% 30.11 in 10.0 mi Calm Calm - N/A   Mostly Cloudy
12:55 PM 32.0 °F - 21.2 °F 64% 30.11 in 10.0 mi Calm Calm - N/A   Mostly Cloudy
1:55 PM 37.4 °F 34.9 °F 21.2 °F 52% 30.09 in 10.0 mi North 3.5 mph - N/A   Scattered Clouds
2:55 PM 37.4 °F - 21.2 °F 52% 30.09 in 10.0 mi Calm Calm - N/A   Partly Cloudy
3:55 PM 35.6 °F - 21.2 °F 56% 30.10 in 10.0 mi Calm Calm - N/A   Partly Cloudy
4:55 PM 35.6 °F - 21.2 °F 56% 30.09 in 10.0 mi Calm Calm - N/A   Partly Cloudy
5:55 PM 30.2 °F - 21.7 °F 71% 30.10 in 10.0 mi Calm Calm - N/A   Clear
6:55 PM 23.9 °F - 19.6 °F 84% 30.14 in 10.0 mi Calm Calm - N/A   Clear
7:55 PM 21.2 °F - 18.1 °F 88% 30.13 in 10.0 mi Calm Calm - N/A   Clear
8:55 PM 17.6 °F - 16.2 °F 94% 30.14 in 10.0 mi Calm Calm - N/A   Clear
9:55 PM 17.4 °F - 14.7 °F 89% 30.13 in 10.0 mi Calm Calm - N/A   Clear
10:55 PM 16.9 °F - 14.7 °F 91% 30.13 in 10.0 mi Calm Calm - N/A   Mostly Cloudy
11:55 PM 15.4 °F - 13.5 °F 92% 30.14 in 10.0 mi Calm Calm - N/A   Mostly Cloudy